TimeCDT,TemperatureF,Dew PointF,Humidity,Sea Level PressureIn,VisibilityMPH,Wind Direction,Wind SpeedMPH,Gust SpeedMPH,PrecipitationIn,Events,Conditions,WindDirDegrees,DateUTC
12:15 AM,49.5,41.0,73,30.08,10.0,South,5.8,-,N/A,,Clear,180,2013-09-29 05:15:00
12:35 AM,48.6,41.0,75,30.08,10.0,South,3.5,-,N/A,,Clear,190,2013-09-29 05:35:00
12:55 AM,48.2,41.2,77,30.08,10.0,South,3.5,-,N/A,,Clear,190,2013-09-29 05:55:00
1:15 AM,48.7,41.0,75,30.07,10.0,SSW,3.5,-,N/A,,Clear,210,2013-09-29 06:15:00
1:35 AM,50.4,41.2,71,30.07,10.0,SSW,4.6,-,N/A,,Clear,210,2013-09-29 06:35:00
1:55 AM,49.3,41.0,73,30.07,10.0,Calm,Calm,-,N/A,,Clear,0,2013-09-29 06:55:00
2:15 AM,52.3,41.9,68,30.07,10.0,SSW,10.4,-,N/A,,Clear,210,2013-09-29 07:15:00
2:35 AM,52.7,42.1,67,30.07,10.0,SSW,9.2,-,N/A,,Clear,210,2013-09-29 07:35:00
2:55 AM,52.5,41.5,66,30.07,10.0,SSW,8.1,-,N/A,,Clear,210,2013-09-29 07:55:00
3:15 AM,52.2,41.0,66,30.06,10.0,SW,6.9,-,N/A,,Clear,220,2013-09-29 08:15:00
3:35 AM,51.8,41.0,67,30.06,10.0,SW,4.6,-,N/A,,Clear,230,2013-09-29 08:35:00
3:55 AM,51.8,40.5,65,30.06,10.0,SW,4.6,-,N/A,,Clear,220,2013-09-29 08:55:00
4:15 AM,51.1,40.5,67,30.05,10.0,Calm,Calm,-,N/A,,Clear,0,2013-09-29 09:15:00
4:35 AM,50.9,39.7,66,30.05,10.0,WSW,3.5,-,N/A,,Clear,240,2013-09-29 09:35:00
4:55 AM,49.1,39.7,70,30.05,10.0,West,3.5,-,N/A,,Clear,260,2013-09-29 09:55:00
5:15 AM,48.6,39.7,72,30.05,10.0,WNW,4.6,-,N/A,,Clear,290,2013-09-29 10:15:00
5:35 AM,50.0,39.6,67,30.05,10.0,West,3.5,-,N/A,,Clear,270,2013-09-29 10:35:00
5:55 AM,48.9,39.7,71,30.04,10.0,West,5.8,-,N/A,,Clear,270,2013-09-29 10:55:00
6:15 AM,50.2,39.0,66,30.04,10.0,WSW,4.6,-,N/A,,Clear,250,2013-09-29 11:15:00
6:35 AM,50.2,39.2,66,30.04,10.0,WSW,4.6,-,N/A,,Clear,240,2013-09-29 11:35:00
6:55 AM,48.0,39.0,71,30.04,10.0,WSW,3.5,-,N/A,,Clear,240,2013-09-29 11:55:00
7:15 AM,48.4,39.0,70,30.04,10.0,WSW,3.5,-,N/A,,Clear,250,2013-09-29 12:15:00
7:35 AM,43.5,38.1,81,30.04,10.0,Calm,Calm,-,N/A,,Clear,0,2013-09-29 12:35:00
7:55 AM,43.9,38.7,82,30.04,10.0,Calm,Calm,-,N/A,,Clear,0,2013-09-29 12:55:00
8:15 AM,45.1,40.3,83,30.04,10.0,Calm,Calm,-,N/A,,Clear,0,2013-09-29 13:15:00
8:35 AM,48.6,44.1,84,30.04,10.0,Calm,Calm,-,N/A,,Clear,0,2013-09-29 13:35:00
8:55 AM,52.7,44.2,73,30.03,10.0,Calm,Calm,-,N/A,,Clear,0,2013-09-29 13:55:00
9:15 AM,55.6,43.9,65,30.03,10.0,SSW,3.5,-,N/A,,Clear,200,2013-09-29 14:15:00
9:35 AM,57.4,43.3,59,30.03,10.0,SSW,4.6,-,N/A,,Clear,210,2013-09-29 14:35:00
9:55 AM,59.9,41.7,51,30.04,10.0,SW,6.9,-,N/A,,Clear,230,2013-09-29 14:55:00
10:15 AM,61.0,41.9,49,30.03,10.0,SW,6.9,-,N/A,,Clear,220,2013-09-29 15:15:00
10:35 AM,62.6,42.1,47,30.03,10.0,WSW,9.2,-,N/A,,Clear,240,2013-09-29 15:35:00
10:55 AM,65.1,41.7,42,30.02,10.0,SW,16.1,19.6,N/A,,Clear,230,2013-09-29 15:55:00
11:15 AM,66.2,41.7,41,30.01,10.0,WSW,12.7,20.7,N/A,,Clear,240,2013-09-29 16:15:00
11:35 AM,68.0,43.3,41,30.00,10.0,SW,9.2,-,N/A,,Clear,230,2013-09-29 16:35:00
11:55 AM,68.9,42.8,39,29.99,10.0,SSW,13.8,19.6,N/A,,Clear,210,2013-09-29 16:55:00
12:15 PM,69.8,44.1,39,29.98,10.0,SSW,15.0,-,N/A,,Clear,210,2013-09-29 17:15:00
12:35 PM,71.1,44.1,38,29.97,10.0,SSW,15.0,23.0,N/A,,Clear,210,2013-09-29 17:35:00
12:55 PM,72.3,44.4,37,29.97,10.0,SSW,18.4,21.9,N/A,,Clear,210,2013-09-29 17:55:00
1:15 PM,72.7,43.2,35,29.95,10.0,SSW,18.4,24.2,N/A,,Clear,210,2013-09-29 18:15:00
1:35 PM,74.7,44.1,33,29.94,10.0,South,19.6,-,N/A,,Clear,190,2013-09-29 18:35:00
1:55 PM,75.4,43.5,32,29.92,10.0,SSW,19.6,27.6,N/A,,Clear,210,2013-09-29 18:55:00
2:15 PM,76.3,43.3,31,29.91,10.0,SSW,19.6,28.8,N/A,,Clear,200,2013-09-29 19:15:00
2:35 PM,77.5,42.3,28,29.90,10.0,South,19.6,26.5,N/A,,Clear,190,2013-09-29 19:35:00
2:55 PM,77.9,42.4,28,29.89,10.0,South,24.2,28.8,N/A,,Clear,190,2013-09-29 19:55:00
3:15 PM,78.1,41.0,27,29.88,10.0,South,18.4,28.8,N/A,,Clear,190,2013-09-29 20:15:00
3:35 PM,79.0,42.3,27,29.87,10.0,South,21.9,-,N/A,,Clear,190,2013-09-29 20:35:00
3:55 PM,78.8,41.9,27,29.86,10.0,South,21.9,27.6,N/A,,Clear,190,2013-09-29 20:55:00
4:15 PM,77.9,41.7,27,29.86,10.0,South,17.3,28.8,N/A,,Clear,180,2013-09-29 21:15:00
4:35 PM,77.7,41.9,28,29.86,10.0,South,13.8,32.2,N/A,,Clear,190,2013-09-29 21:35:00
4:55 PM,76.5,42.6,30,29.86,10.0,South,15.0,24.2,N/A,,Clear,180,2013-09-29 21:55:00
5:15 PM,77.0,41.5,28,29.85,10.0,South,19.6,25.3,N/A,,Clear,180,2013-09-29 22:15:00
5:35 PM,75.9,41.7,29,29.85,10.0,South,16.1,27.6,N/A,,Clear,180,2013-09-29 22:35:00
5:55 PM,76.1,42.6,30,29.85,10.0,South,13.8,19.6,N/A,,Clear,170,2013-09-29 22:55:00
6:15 PM,75.6,42.1,30,29.85,10.0,South,17.3,21.9,N/A,,Clear,180,2013-09-29 23:15:00
6:35 PM,74.3,42.4,32,29.85,10.0,South,13.8,18.4,N/A,,Clear,170,2013-09-29 23:35:00
6:55 PM,72.1,42.4,34,29.84,10.0,South,13.8,18.4,N/A,,Clear,180,2013-09-29 23:55:00
7:15 PM,70.0,43.0,38,29.83,10.0,South,11.5,-,N/A,,Clear,170,2013-09-30 00:15:00
7:35 PM,68.4,43.3,40,29.84,10.0,South,11.5,-,N/A,,Clear,180,2013-09-30 00:35:00
7:55 PM,66.2,44.6,46,29.84,10.0,South,11.5,-,N/A,,Clear,170,2013-09-30 00:55:00
8:15 PM,65.5,45.0,47,29.84,10.0,South,10.4,-,N/A,,Clear,170,2013-09-30 01:15:00
8:35 PM,64.4,45.5,50,29.84,10.0,SSE,11.5,-,N/A,,Clear,160,2013-09-30 01:35:00
8:55 PM,64.6,44.8,49,29.84,10.0,South,11.5,-,N/A,,Clear,170,2013-09-30 01:55:00
9:15 PM,65.5,44.1,46,29.85,10.0,South,13.8,-,N/A,,Clear,170,2013-09-30 02:15:00
9:35 PM,65.7,43.0,44,29.84,10.0,South,18.4,21.9,N/A,,Clear,180,2013-09-30 02:35:00
9:55 PM,65.5,43.2,44,29.85,10.0,South,17.3,23.0,N/A,,Clear,180,2013-09-30 02:55:00
10:15 PM,64.4,43.0,46,29.85,10.0,South,16.1,20.7,N/A,,Clear,180,2013-09-30 03:15:00
10:35 PM,63.5,42.8,47,29.85,10.0,South,16.1,21.9,N/A,,Clear,170,2013-09-30 03:35:00
10:55 PM,63.3,42.4,46,29.85,10.0,South,15.0,-,N/A,,Clear,180,2013-09-30 03:55:00
11:15 PM,62.1,43.0,50,29.85,10.0,South,13.8,-,N/A,,Clear,180,2013-09-30 04:15:00
11:35 PM,60.8,43.5,53,29.85,10.0,South,12.7,-,N/A,,Clear,180,2013-09-30 04:35:00
11:55 PM,60.3,43.7,54,29.85,10.0,South,11.5,-,N/A,,Clear,170,2013-09-30 04:55:00